Location: Marshall
(39.8477°N, 87.1868°W)
Time: 02:49:45
(UTC+00:00)

BlueWalker 3 - Pass Details

Date: 08 May 2026
Orbit: 447 x 456 km, 53.2° (Epoch: 9 June)

Event Time Altitude Azimuth Distance (km) Brightness Sun altitude
Exits shadow 08:33:09 45° 317° (NW) 620 2.3 -20.9°
Maximum altitude 08:33:18 45° 325° (NW) 618 2.4 -20.9°
Drops below altitude 10° 08:36:42 10° 39° (NE) 1,575 5.7 -20.4°
Sets 08:38:54 0° 46° (NE) 2,450 7.1 -20.1°
